Weather History for Tapachula Airport, Mexico

Change the Weather History Date:

Thursday, November 21, 2013

  Actual Average Record
Temperature  
Mean Temperature 82 °F -  
Max Temperature 89 °F 86 °F 91 °F (1997)
Min Temperature 75 °F 73 °F 71 °F (2001)
Cooling Degree Days 17    
Growing Degree Days 32 (Base 50)    
Moisture  
Dew Point 75 °F    
Average Humidity 80    
Maximum Humidity 89    
Minimum Humidity 62    
Precipitation  
Precipitation 0.00 in - - ()
Sea Level Pressure  
Sea Level Pressure 29.89 in    
Wind  
Wind Speed 2 mph ()    
Max Wind Speed 14 mph    
Max Gust Speed -    
Visibility 9.6 miles    
Events      
Averages and records for this station are not official NWS values.
T = Trace of Precipitation, MM = Missing Value Source: Averaged Metar Reports

Daily Weather History Graph

Daily Weather History Graph

Search for Another Location

Airport:

Trip Planner

Search our weather history database for the weather conditions in past years. The results will help you decide how hot, cold, wet, or windy it might be!

Date:

Astronomy

Nov. 21, 2013 Rise Set
Actual Time 6:13 AM CST 5:36 PM CST
Civil Twilight 5:51 AM CST 5:59 PM CST
Nautical Twilight 5:24 AM CST 6:25 PM CST
Astronomical Twilight 4:58 AM CST 6:51 PM CST
Moon 9:08 PM CST (11/21) 9:23 AM CST (11/21)
Length of Visible Light 12h 08m
Length of Day
11h 23m
Waning Gibbous, 85% of the Moon is Illuminated
Nov 21
Waning Gibbous
Nov 25
Last Quarter
Dec 2
New
Dec 9
First Quarter
Dec 17
Full

Hourly Weather History & Observations

Time (CST) Temp. Heat Index Dew Point Humidity Pressure Visibility Wind Dir Wind Speed Gust Speed Precip Events Conditions
12:40 AM 75.2 °F - 71.6 °F 89% 29.93 in 10.0 mi Calm Calm - N/A   Mostly Cloudy
3:40 AM 75.2 °F - 71.6 °F 89% 29.89 in 10.0 mi Calm Calm - N/A   Scattered Clouds
4:55 AM 75.2 °F - 71.6 °F 89% 29.89 in 10.0 mi Calm Calm - N/A   Mostly Cloudy
5:48 AM 75.2 °F - 71.6 °F 89% 29.87 in 10.0 mi NE 5.8 mph - N/A   Partly Cloudy
6:53 AM 77.0 °F - 73.4 °F 89% 29.92 in 10.0 mi Calm Calm - N/A   Clear
7:49 AM 77.0 °F - 73.4 °F 89% 29.93 in 10.0 mi Calm Calm - N/A   Clear
8:40 AM 82.4 °F 89.5 °F 75.2 °F 79% 29.90 in 10.0 mi Calm Calm - N/A   Clear
9:47 AM 86.0 °F 95.1 °F 75.2 °F 70% 29.96 in 10.0 mi Calm Calm - N/A   Partly Cloudy
10:40 AM 87.8 °F 97.6 °F 75.2 °F 66% 29.95 in 10.0 mi Calm Calm - N/A   Scattered Clouds
11:45 AM 89.6 °F 99.8 °F 75.2 °F 62% 29.87 in 7.0 mi West 8.1 mph - N/A   Scattered Clouds
12:40 PM 89.6 °F 99.8 °F 75.2 °F 62% 29.89 in 10.0 mi West 6.9 mph - N/A   Scattered Clouds
1:41 PM 87.8 °F 97.6 °F 75.2 °F 66% 29.86 in 10.0 mi WSW 8.1 mph - N/A   Scattered Clouds
2:49 PM 86.0 °F 95.1 °F 75.2 °F 70% 29.83 in 10.0 mi South 13.8 mph - N/A   Mostly Cloudy
3:42 PM 86.0 °F 95.1 °F 75.2 °F 70% 29.84 in 10.0 mi SSW 8.1 mph - N/A   Mostly Cloudy
4:40 PM 84.2 °F 92.3 °F 75.2 °F 74% 29.87 in 10.0 mi Calm Calm - N/A   Scattered Clouds
5:43 PM 82.4 °F 90.9 °F 77.0 °F 84% 29.84 in 10.0 mi Calm Calm - N/A   Scattered Clouds
6:40 PM 82.4 °F 90.9 °F 77.0 °F 84% 29.89 in 10.0 mi Calm Calm - N/A   Scattered Clouds
7:40 PM 82.4 °F 89.5 °F 75.2 °F 79% 29.89 in 10.0 mi Calm Calm - N/A   Scattered Clouds
8:54 PM 82.4 °F 92.4 °F 78.8 °F 89% 29.84 in 10.0 mi Calm Calm - N/A   Scattered Clouds
9:58 PM 80.6 °F 86.2 °F 75.2 °F 84% 29.96 in 8.0 mi Calm Calm - N/A   Scattered Clouds
10:56 PM 78.8 °F - 75.2 °F 89% 29.95 in 8.0 mi Calm Calm - N/A   Scattered Clouds
11:47 PM 78.8 °F - 75.2 °F 89% 29.90 in 8.0 mi Calm Calm - N/A   Scattered Clouds